Página principal
METAR-TAF:

METAR-TAF

Aeroportos :

Cairuão, Tunísia

latitude: 35-40N, longitude: 010-06E, altura: 60 m

Observação actual do tempo

O boletim foi feito há 1 hora e 12 minutos, às 17:00 UTC
Vento 6 kt de oes-noroeste, variando entre sudoeste e norte
Temperatura 29°C
Humidade 52%
Pressão 1018 hPa
Visibilidade 10 km ou mais
Nuvens fragmentadasa uma altura de 2300 ft
Poucas nuvensa uma altura de 3300 ft, Cumulonimbus.

METAR: DTTK 181700Z 29006KT 220V010 9999 BKN023 FEW033CB 29/18 Q1018 CB/NW

Hora: 19:12 (18:12 UTC)


TAF: em falta

Observações e previsões do tempo de mais de 4000 aeroportos (mensagens METAR e TAF).

As estações disponíveis são os pontos amarelos e vermelhos sobre o mapa.

Mova o rato sobre o mapa para ver o nome da estação.

Depois clique no ponto para visualizar as observações e previsões meteorológicas.

Para alterar o mapa : clique nos botões verdes com uma cruz preta para aumentar o zoom; no botão verde com uma pitada de zoom; ou nas setas verdes para mapas adjacentes.


METAR-TAF: